Temperature
16 16 15 15 15 15 15 14 14 14 14 14 14 14 14 14 14 13 13 13 13 13 13 13 13 13 13 13 13 13 13 13 13 13 13 13 13 13 13 13 13 13 13
16 15 15 15 15 14 14 14 14 14 14 14 14 14 14 14 14 13 13 13 13 13 13 13 13 13 13 13 13 13 13 13 13 13 13 13 13 13 13 12 12 12 12
16 15 15 15 15 14 14 14 14 14 14 14 14 14 14 13 13 13 13 13 13 13 13 13 13 13 13 13 13 13 13 13 13 13 13 13 12 12 12 12 12 12 12
16 15 15 15 15 14 14 14 14 14 14 14 14 14 13 13 13 13 13 13 13 13 13 13 13 13 13 13 13 13 13 12 12 12 12 12 12 12 12 12 12 12 12
16 15 15 15 15 14 14 14 14 14 14 14 14 13 13 13 13 13 13 13 13 13 13 12 12 12 12 12 12 12 12 12 12 12 12 12 12 12 12 12 12 12 12
15 15 15 15 14 14 14 14 14 14 14 13 13 13 13 13 13 13 13 13 12 12 12 12 12 12 12 12 12 12 12 12 12 12 12 12 12 11 11 11 11 11 11
15 15 15 15 14 14 14 14 14 14 13 13 13 13 13 13 13 13 13 12 12 12 12 12 12 12 12 12 12 12 12 12 12 12 12 12 11 11 11 11 11 11 11
15 15 15 14 14 14 14 14 14 13 13 13 13 13 13 13 13 13 12 12 12 12 12 12 12 12 12 12 11 12 12 11 11 11 11 11 11 11 11 11 11 11 11
15 15 14 14 14 14 14 14 13 13 13 13 13 13 13 13 13 13 12 12 12 12 12 12 12 11 11 11 11 11 11 11 11 11 11 11 11 11 11 11 10 10 10
14 14 14 14 14 14 14 14 13 13 13 13 13 13 13 13 13 13 12 12 12 12 12 12 11 11 11 11 11 11 11 11 11 11 11 11 10 10 10 10 10 10 10
14 14 14 14 14 14 14 14 13 13 13 13 13 13 13 13 13 12 12 12 12 12 12 12 11 11 11 11 11 11 11 11 11 11 10 10 10 10 10 10 10 10 10
14 14 14 13 13 13 13 13 13 13 13 13 13 13 13 13 13 12 12 12 12 12 12 12 11 11 11 11 11 11 11 11 10 10 10 10 10 10 10 10 10 10 10
13 13 13 13 13 13 13 13 13 13 13 13 13 13 13 13 12 12 12 12 12 12 12 11 11 11 11 11 11 11 10 10 10 10 10 10 10 10 10 10 10 9 9
13 13 13 13 13 13 13 13 13 13 13 13 13 13 13 12 12 12 12 12 12 11 11 11 11 11 11 11 11 11 10 10 10 10 10 10 10 10 9 9 9 9 9
13 13 13 13 12 13 13 13 13 13 13 13 13 13 13 12 12 12 12 12 12 11 11 11 11 11 11 11 10 10 10 10 10 10 10 10 9 9 9 9 9 9 9
12 12 12 12 12 12 12 12 13 12 12 12 12 12 12 12 12 12 12 12 11 11 11 11 11 11 11 11 10 10 10 10 10 10 10 10 9 9 9 9 9 9 9
12 12 12 12 12 12 12 12 12 12 12 12 12 12 12 12 12 12 11 11 11 11 11 11 10 10 10 10 10 10 10 10 10 10 10 9 9 9 9 9 9 9 9
12 12 12 12 12 12 12 12 12 12 12 12 12 12 12 11 11 11 11 11 11 11 11 11 10 10 10 10 10 10 10 10 10 10 10 9 9 9 9 9 9 8 8
12 12 12 12 12 12 12 12 12 12 12 12 11 11 11 11 11 11 11 11 11 11 10 10 10 10 10 10 10 10 10 10 10 10 9 9 9 9 9 9 8 8 8
12 12 12 12 12 12 12 12 11 11 11 11 11 11 11 11 11 11 11 11 10 10 10 10 10 10 10 10 10 10 10 9 9 9 9 9 9 9 9 8 8 8 8
11 11 11 11 11 11 11 11 11 11 11 11 11 11 11 11 10 10 10 10 10 10 10 10 10 10 10 10 10 9 9 9 9 9 9 9 9 8 8 8 8 8 8
11 11 11 11 11 11 11 11 11 11 11 10 10 10 10 10 10 10 10 10 10 10 10 10 10 10 9 9 9 9 9 9 9 9 9 9 8 8 8 8 8 8 8
11 11 11 11 11 11 11 11 10 10 10 10 10 10 10 10 10 10 9 9 9 9 9 9 9 9 9 9 9 9 9 9 8 8 8 8 8 8 8 8 8 8 8
11 11 11 11 10 10 10 10 10 10 10 10 10 10 9 9 9 9 9 9 9 9 9 9 9 9 9 9 9 9 8 8 8 8 8 8 8 8 8 8 8 8 8
10 10 10 10 10 10 10 10 10 10 10 9 9 9 9 9 9 9 9 9 9 8 8 8 8 8 8 8 8 8 8 8 8 8 8 8 8 8 8 7 7 7 7
10 10 10 10 10 10 10 9 9 9 9 9 9 9 9 9 9 8 8 8 8 8 8 8 8 8 8 8 8 8 8 8 8 8 8 8 8 7 7 7 7 7 7
Wind_Speed
7 6 6 5 4 4 5 5 4 4 4 4 4 4 4 4 4 4 4 4 5 4 4 4 5 4 3 3 3 3 3 4 4 4 3 2 2 3 3 5 6 6 8
7 6 6 5 4 4 5 5 4 4 4 4 4 4 4 4 5 5 5 5 5 5 5 4 5 4 4 3 3 4 3 4 4 4 3 2 3 3 3 3 4 5 6
7 7 6 5 5 5 5 4 4 4 4 3 3 4 4 4 4 5 5 5 5 5 5 5 5 4 4 3 3 3 3 3 2 3 3 2 2 2 1 2 3 3 4
6 7 6 6 6 6 5 4 4 4 4 4 4 4 4 4 4 4 4 4 4 4 4 4 4 4 5 5 4 4 3 2 2 2 2 2 2 2 1 1 2 2 3
6 6 6 6 5 5 4 4 3 3 4 4 4 4 4 4 4 4 4 4 3 3 3 3 4 4 6 5 4 4 4 3 2 2 2 1 2 1 2 2 2 3 3
6 6 6 5 5 5 5 4 4 3 3 3 4 4 4 4 5 6 5 3 3 3 3 3 3 4 5 6 6 6 6 5 5 3 3 3 4 3 3 2 2 1 3
5 5 5 5 5 5 5 4 4 4 3 3 3 3 4 4 5 6 6 4 4 4 3 3 3 3 4 3 4 4 4 5 7 5 5 5 5 4 3 2 2 3 4
4 3 4 5 5 5 4 4 4 4 3 3 3 3 3 4 5 6 5 4 3 3 4 4 4 3 3 3 2 1 2 3 4 4 5 6 5 5 5 4 4 2 2
3 3 4 4 5 5 5 5 4 4 4 4 3 4 4 4 6 6 6 3 3 3 3 3 3 3 4 4 3 2 2 3 3 3 5 6 6 6 5 2 1 1 1
3 4 4 4 4 6 6 5 4 4 4 4 4 4 5 5 6 7 7 4 3 3 2 2 4 4 5 4 4 4 3 4 2 2 2 3 3 4 4 4 4 3 2
2 3 3 3 4 5 5 4 4 4 4 3 3 3 4 5 6 7 8 5 4 4 3 2 3 3 4 5 5 5 6 4 2 1 2 2 2 2 2 3 4 4 4
1 1 1 2 3 3 4 4 4 4 4 4 3 3 3 3 4 5 8 8 6 4 4 3 3 4 4 4 4 4 4 2 1 1 1 2 3 3 3 3 4 5 6
2 1 1 2 2 2 3 3 3 4 4 4 3 3 3 3 3 5 7 7 7 5 4 5 5 5 4 3 4 4 2 1 2 2 3 4 4 4 3 2 2 2 3
2 1 1 1 1 1 2 2 3 4 4 4 4 4 4 3 3 3 3 4 4 4 3 3 3 3 2 3 3 2 3 3 4 4 4 4 3 2 2 2 2 1 1
1 1 1 2 2 2 2 3 4 5 6 6 5 5 5 5 6 6 6 5 5 4 2 1 0 1 1 2 2 2 2 2 3 3 3 3 3 2 3 2 2 1 2
1 1 2 2 2 2 2 2 4 4 5 7 6 6 5 6 5 5 6 7 6 6 4 2 2 3 4 4 3 3 3 3 4 4 4 4 4 3 3 2 2 2 3
2 2 2 2 2 2 2 2 2 3 2 2 4 6 6 5 5 5 5 5 4 6 3 3 4 4 4 4 4 4 4 4 4 4 4 4 4 3 3 3 3 3 4
1 2 2 2 2 3 3 3 3 2 1 1 2 3 4 5 5 5 4 3 1 2 3 4 5 5 4 4 4 4 4 3 3 3 4 4 4 3 3 3 3 4 4
1 2 2 2 2 2 2 2 2 2 2 1 0 1 1 2 3 3 4 2 3 3 4 4 4 4 4 4 4 4 4 4 3 3 3 4 4 3 4 4 4 5 4
1 2 1 1 1 1 1 1 2 2 2 2 2 2 1 2 1 1 2 3 3 3 3 4 4 4 4 4 4 4 3 4 4 3 3 3 3 3 4 4 4 4 4
1 1 1 0 1 1 1 2 2 3 2 2 2 2 3 3 3 3 3 3 4 4 3 3 3 3 4 4 4 4 4 4 4 4 4 4 3 3 4 4 4 4 4
1 1 1 1 1 1 1 1 2 2 3 3 2 1 2 1 2 2 3 3 3 3 3 3 2 3 3 3 3 3 4 4 4 4 4 4 3 4 4 3 3 3 3
1 0 1 1 1 2 1 1 1 2 2 2 2 1 1 2 2 2 2 2 2 2 1 2 2 2 2 2 2 2 3 4 5 5 5 4 4 4 3 4 4 4 4
0 1 1 1 1 1 1 1 1 1 2 2 2 2 2 2 2 2 2 2 1 1 1 1 1 2 2 1 1 1 1 2 3 3 4 4 4 3 3 3 4 4 4
0 0 1 1 1 1 1 1 1 1 1 2 2 1 2 2 2 2 2 1 1 1 0 0 0 0 0 1 1 2 3 2 1 1 1 2 3 3 3 4 4 4 4
0 0 0 0 0 0 1 1 1 1 1 1 1 1 1 1 2 1 1 1 1 0 1 1 1 2 2 2 2 3 3 3 2 2 1 1 2 2 2 3 4 4 4
Wind_Direction
176 178 175 182 183 177 179 192 198 201 203 200 205 206 204 201 197 192 201 200 200 213 219 212 222 214 207 208 202 198 198 185 216 262 256 255 236 238 255 241 241 237 241
178 174 176 180 183 186 192 199 199 203 208 204 201 201 206 206 199 196 207 208 203 210 218 215 225 219 211 213 201 207 213 204 198 241 266 259 246 242 244 254 258 251 240
171 172 176 184 191 198 203 202 199 199 202 198 194 202 206 205 205 207 206 208 209 214 214 218 228 213 218 211 201 204 215 216 197 208 250 263 269 263 272 275 271 272 259
172 175 184 195 199 203 204 199 199 195 192 190 194 202 205 202 207 210 205 206 210 217 215 216 220 211 211 207 205 204 198 197 195 200 236 266 267 276 229 261 285 279 269
170 180 195 197 195 194 198 199 196 193 198 195 195 204 208 201 208 201 200 198 202 215 221 222 224 220 211 204 203 200 190 191 198 200 223 251 267 275 250 236 246 277 281
177 191 194 185 188 196 198 196 197 205 211 202 204 205 207 215 209 196 191 197 198 201 215 235 238 226 226 220 219 207 192 193 200 205 216 222 241 237 237 232 223 247 280
186 193 188 183 187 197 195 189 197 208 207 216 222 213 220 226 205 201 202 196 204 209 208 217 239 237 214 219 233 231 227 224 205 195 208 225 228 225 215 230 230 221 233
177 186 186 181 184 190 189 198 206 204 207 216 223 218 217 220 201 200 195 188 195 205 208 212 216 232 220 202 198 216 255 252 232 211 214 229 227 220 205 208 218 228 268
173 195 194 189 186 184 190 205 209 203 211 216 218 216 215 223 211 202 188 183 196 216 224 220 209 217 233 205 182 206 254 283 280 243 237 242 244 237 205 164 166 153 275
204 208 198 192 195 196 200 204 206 206 215 221 228 223 218 224 215 203 186 182 197 221 236 235 222 222 231 210 188 193 221 255 268 320 333 312 278 263 228 190 189 188 208
219 209 205 206 204 206 204 207 207 210 214 221 230 235 224 221 214 205 190 187 198 204 215 232 243 240 241 226 202 202 224 230 219 232 271 289 290 274 262 223 200 190 197
150 157 198 209 215 215 209 217 212 200 207 221 227 243 237 228 213 205 196 201 198 189 212 223 227 236 242 235 216 225 234 228 193 229 265 274 272 271 267 261 239 219 213
136 175 217 224 227 222 218 222 216 206 209 221 217 226 239 237 226 211 201 206 207 201 215 218 229 235 234 230 227 232 231 191 188 216 246 259 257 254 262 282 288 257 244
140 223 235 233 265 276 257 225 215 213 212 216 215 220 232 237 232 226 215 213 211 211 227 237 242 243 229 228 234 234 217 208 205 225 244 258 265 266 253 241 247 255 280
164 249 250 240 244 268 263 242 224 221 210 207 217 213 211 230 234 212 195 199 200 202 185 177 227 250 258 257 252 249 233 222 225 236 244 259 264 260 256 241 229 229 229
173 249 250 250 255 256 253 283 272 247 231 210 206 202 214 225 228 205 203 204 202 182 154 188 222 229 228 231 232 243 234 231 232 229 233 235 240 244 253 253 232 226 239
199 243 251 250 244 250 237 235 281 319 340 237 222 210 208 207 200 199 199 197 190 161 169 211 222 228 230 226 224 226 234 234 221 216 225 233 235 237 234 241 244 245 249
232 248 251 255 253 251 241 230 217 215 253 295 281 232 218 203 196 193 177 138 140 170 208 219 227 230 228 227 230 233 239 237 222 222 228 235 232 228 231 241 243 242 249
255 263 264 275 267 258 248 231 218 213 211 212 267 307 260 210 194 194 164 173 210 228 230 231 232 229 228 230 233 233 231 231 229 226 232 236 231 223 232 239 243 251 248
270 266 262 278 279 276 256 217 216 210 201 196 208 216 162 112 140 211 192 211 224 233 236 238 241 234 232 233 231 229 230 236 237 231 232 233 227 216 226 236 243 249 248
256 272 267 247 248 245 246 226 214 206 210 213 227 218 162 166 198 214 215 217 222 232 239 239 242 241 239 237 234 229 228 236 233 226 226 230 228 230 235 235 242 245 249
241 242 240 241 256 252 248 232 209 196 199 207 230 220 167 177 213 224 230 234 235 238 234 226 236 243 237 237 238 240 238 235 235 228 229 232 233 237 238 239 245 250 252
189 208 289 285 264 248 233 216 194 182 189 200 203 199 192 217 231 232 231 241 247 244 240 213 218 250 266 259 249 238 238 244 245 233 228 235 238 234 232 238 246 254 258
197 239 264 278 287 240 200 191 191 180 173 184 199 208 208 213 225 233 230 232 221 233 231 201 209 239 262 295 307 302 279 275 267 248 230 225 230 231 229 238 246 248 252
168 267 275 252 255 223 185 191 186 179 176 185 189 200 214 219 229 245 256 246 208 208 292 316 45 298 331 352 357 355 356 349 341 318 213 227 233 238 239 245 252 257 258
63 113 115 127 101 150 137 163 179 171 168 176 172 178 195 208 208 212 219 186 145 113 25 23 47 57 48 36 14 10 13 10 14 26 74 191 229 247 246 255 260 261 261
Height
1488 1490 1491 1493 1493 1494 1494 1495 1496 1496 1497 1497 1497 1497 1498 1498 1499 1499 1500 1500 1501 1502 1503 1503 1504 1505 1506 1506 1507 1507 1508 1508 1506 1506 1507 1506 1506 1506 1507 1507 1507 1506 1506
1487 1488 1489 1490 1491 1492 1492 1493 1493 1493 1494 1494 1494 1495 1495 1496 1496 1497 1497 1497 1498 1498 1499 1500 1501 1502 1502 1503 1503 1504 1504 1504 1504 1503 1503 1503 1503 1503 1503 1503 1502 1502 1502
1485 1486 1487 1488 1489 1489 1490 1491 1491 1491 1492 1492 1492 1492 1492 1493 1493 1494 1494 1494 1495 1495 1496 1497 1498 1498 1498 1499 1500 1500 1501 1501 1501 1500 1499 1500 1499 1499 1499 1499 1499 1498 1498
1483 1484 1485 1486 1487 1487 1488 1488 1489 1489 1489 1489 1489 1490 1490 1490 1491 1491 1492 1492 1492 1492 1493 1494 1494 1495 1495 1496 1497 1497 1497 1497 1497 1497 1497 1496 1496 1496 1496 1495 1495 1495 1495
1480 1481 1482 1483 1485 1486 1486 1486 1486 1486 1486 1487 1487 1487 1488 1488 1488 1489 1489 1489 1489 1489 1490 1491 1491 1492 1492 1493 1493 1494 1494 1494 1494 1494 1493 1493 1493 1493 1492 1492 1492 1491 1491
1478 1479 1481 1482 1483 1484 1484 1484 1484 1484 1484 1484 1484 1484 1485 1486 1486 1487 1487 1486 1486 1487 1487 1488 1488 1489 1489 1490 1490 1491 1491 1491 1491 1491 1490 1490 1490 1490 1490 1489 1489 1488 1487
1476 1477 1478 1480 1481 1481 1482 1482 1482 1482 1482 1482 1482 1482 1483 1483 1484 1484 1484 1484 1484 1484 1484 1485 1485 1485 1486 1486 1487 1488 1488 1488 1488 1488 1487 1487 1487 1487 1487 1486 1485 1485 1484
1474 1475 1476 1477 1478 1479 1479 1479 1480 1480 1480 1480 1480 1480 1480 1481 1481 1481 1481 1481 1481 1481 1482 1482 1482 1482 1483 1483 1484 1484 1484 1484 1485 1484 1484 1484 1484 1484 1483 1483 1482 1482 1481
1472 1473 1473 1474 1475 1476 1476 1477 1477 1477 1477 1478 1478 1478 1478 1478 1479 1479 1479 1478 1478 1479 1479 1480 1480 1480 1480 1481 1481 1481 1481 1481 1481 1481 1481 1481 1481 1481 1480 1480 1479 1479 1478
1470 1470 1471 1471 1472 1473 1474 1474 1475 1475 1475 1475 1475 1476 1475 1475 1476 1476 1476 1476 1476 1476 1477 1477 1477 1477 1478 1478 1478 1478 1477 1477 1478 1477 1477 1477 1477 1477 1477 1477 1476 1476 1475
1468 1468 1468 1468 1469 1470 1471 1472 1472 1472 1472 1473 1473 1473 1473 1473 1473 1473 1473 1473 1473 1474 1474 1474 1475 1475 1475 1476 1476 1475 1475 1475 1474 1474 1474 1474 1473 1473 1473 1474 1474 1473 1473
1467 1466 1466 1466 1467 1468 1468 1469 1469 1469 1469 1469 1470 1470 1470 1471 1471 1471 1471 1471 1471 1471 1471 1472 1473 1473 1473 1474 1474 1473 1473 1473 1472 1472 1471 1471 1471 1470 1470 1470 1471 1470 1470
1465 1464 1464 1464 1465 1465 1466 1466 1466 1466 1466 1466 1467 1467 1467 1468 1468 1468 1468 1469 1469 1469 1469 1470 1470 1471 1471 1471 1471 1471 1471 1470 1470 1469 1469 1468 1469 1469 1468 1468 1468 1468 1467
1462 1462 1463 1462 1463 1463 1463 1463 1463 1462 1463 1463 1463 1463 1464 1464 1465 1465 1465 1466 1466 1467 1467 1467 1468 1468 1468 1468 1468 1469 1468 1468 1468 1467 1466 1466 1466 1466 1466 1466 1465 1465 1464
1460 1461 1460 1460 1460 1460 1461 1460 1460 1460 1460 1460 1460 1460 1460 1460 1461 1462 1462 1463 1463 1464 1464 1465 1465 1465 1465 1465 1466 1466 1466 1466 1465 1465 1464 1464 1463 1463 1463 1462 1462 1462 1461
1458 1458 1458 1458 1458 1458 1458 1458 1458 1458 1458 1457 1457 1457 1457 1458 1458 1459 1460 1460 1461 1461 1462 1461 1462 1462 1462 1463 1463 1463 1463 1463 1462 1462 1462 1461 1460 1460 1459 1459 1459 1459 1458
1456 1456 1456 1456 1456 1456 1456 1455 1455 1455 1455 1454 1454 1455 1455 1455 1456 1456 1457 1458 1458 1459 1458 1458 1459 1459 1459 1460 1460 1460 1459 1460 1460 1459 1459 1458 1458 1457 1456 1456 1456 1455 1454
1455 1455 1455 1454 1454 1454 1453 1453 1452 1452 1451 1451 1452 1452 1452 1453 1453 1454 1455 1455 1455 1455 1455 1455 1456 1456 1456 1456 1456 1456 1456 1457 1456 1456 1455 1455 1454 1454 1453 1452 1452 1451 1451
1453 1453 1453 1452 1452 1451 1451 1450 1450 1449 1449 1448 1449 1449 1450 1450 1451 1452 1452 1452 1452 1452 1452 1452 1453 1453 1453 1453 1453 1453 1453 1453 1453 1452 1452 1451 1451 1450 1449 1449 1448 1448 1447
1452 1451 1451 1450 1449 1449 1448 1448 1448 1447 1447 1446 1447 1447 1448 1448 1448 1449 1449 1449 1449 1449 1449 1449 1449 1450 1450 1449 1449 1449 1449 1449 1449 1448 1448 1447 1447 1446 1445 1445 1444 1444 1443
1449 1449 1448 1448 1447 1447 1446 1446 1445 1445 1445 1445 1445 1445 1446 1446 1446 1447 1447 1447 1447 1447 1447 1446 1446 1446 1446 1446 1445 1445 1445 1445 1444 1444 1443 1443 1443 1442 1442 1441 1441 1440 1439
1447 1447 1446 1445 1445 1444 1444 1444 1443 1443 1443 1443 1443 1444 1444 1444 1444 1444 1444 1444 1444 1444 1444 1443 1443 1442 1442 1442 1441 1441 1440 1440 1440 1440 1439 1439 1439 1438 1438 1437 1437 1436 1435
1445 1444 1444 1443 1443 1442 1442 1441 1441 1441 1441 1441 1441 1441 1441 1441 1441 1441 1441 1441 1441 1441 1441 1440 1439 1438 1438 1438 1437 1436 1436 1436 1436 1436 1435 1435 1435 1434 1434 1433 1432 1432 1431
1443 1442 1442 1441 1441 1440 1440 1440 1440 1440 1440 1440 1439 1439 1439 1439 1439 1439 1439 1439 1438 1438 1437 1436 1435 1435 1434 1433 1432 1432 1431 1431 1431 1431 1431 1430 1430 1430 1429 1429 1428 1428 1428
1441 1441 1440 1439 1439 1439 1438 1438 1438 1438 1438 1438 1437 1437 1437 1437 1436 1436 1436 1436 1435 1434 1434 1433 1432 1431 1430 1429 1428 1427 1427 1427 1426 1426 1426 1426 1426 1425 1425 1425 1424 1424 1423
1440 1439 1438 1438 1437 1437 1437 1436 1436 1436 1436 1436 1435 1435 1434 1434 1433 1433 1433 1432 1431 1431 1430 1429 1428 1427 1426 1425 1424 1424 1423 1422 1422 1422 1421 1421 1421 1421 1421 1420 1420 1419 1419